When you browse on this site, cookies collect data to enhance your experience and personalize the content and advertising you see.
Visit our Privacy Policy to learn more. By continuing to use the site, you agree to this use of cookies and data.
  • In Hungary
  • List of Countries
  • For 7 days
  • Water Temperature
  • Satellite Maps
  • Weather Map
  • News
  • Weather Widgets
  • user-avatar
    Login

    Hourly Weather Uberlingen

    Today, 27 June, Thursday

    Time Temperature Precipitation Wind Pressure Humidity
    00:00 +21°C° 0 mm 0 mps 729 mmHg 85%
    01:00 +21°C° 0 mm 0 mps 728 mmHg 85%
    02:00 +20°C° 0 mm 0 mps 728 mmHg 85%
    03:00 +20°C° 0 mm 0 mps 728 mmHg 86%
    04:00 +20°C° 0 mm 0 mps 728 mmHg 86%
    05:00 +21°C° 0 mm 0 mps 728 mmHg 84%
    06:00 +22°C° 0 mm 0 mps 728 mmHg 81%
    07:00 +24°C° 0 mm 0 mps 729 mmHg 79%
    08:00 +26°C° 0 mm 0 mps 729 mmHg 72%
    09:00 +30°C° 0 mm 1 mps 729 mmHg 66%
    10:00 +32°C° 0 mm 1 mps 729 mmHg 59%
    11:00 +33°C° 0 mm 1 mps 729 mmHg 56%
    12:00 +34°C° 0 mm 1 mps 729 mmHg 52%
    13:00 +35°C° 0 mm 1 mps 729 mmHg 49%
    14:00 +36°C° 0.2 mm 2 mps 729 mmHg 53%
    15:00 +35°C° 0.2 mm 2 mps 728 mmHg 57%
    16:00 +34°C° 0.2 mm 3 mps 728 mmHg 61%
    17:00 +33°C° 0.3 mm 3 mps 728 mmHg 69%
    18:00 +30°C° 0.3 mm 2 mps 728 mmHg 76%
    19:00 +29°C° 0.3 mm 2 mps 728 mmHg 84%
    20:00 +27°C° 0.3 mm 2 mps 728 mmHg 87%
    21:00 +25°C° 0.3 mm 2 mps 728 mmHg 89%
    22:00 +23°C° 0.3 mm 2 mps 728 mmHg 92%
    23:00 +21°C° 0 mm 2 mps 728 mmHg 91%

    Tomorrow, 28 June, Friday

    Time Temperature Precipitation Wind Pressure Humidity
    00:00 +20°C° 0 mm 2 mps 728 mmHg 90%
    01:00 +20°C° 0 mm 1 mps 728 mmHg 90%
    02:00 +18°C° 0 mm 1 mps 728 mmHg 87%
    03:00 +16°C° 0 mm 1 mps 727 mmHg 84%
    04:00 +15°C° 0 mm 1 mps 727 mmHg 82%
    05:00 +16°C° 0 mm 1 mps 727 mmHg 78%
    06:00 +18°C° 0 mm 1 mps 727 mmHg 75%
    07:00 +19°C° 0 mm 1 mps 727 mmHg 71%
    08:00 +21°C° 0 mm 1 mps 727 mmHg 66%
    09:00 +23°C° 0 mm 2 mps 727 mmHg 61%
    10:00 +25°C° 0 mm 2 mps 727 mmHg 55%
    11:00 +26°C° 0 mm 2 mps 727 mmHg 53%
    12:00 +27°C° 0 mm 3 mps 727 mmHg 51%
    13:00 +28°C° 0 mm 3 mps 726 mmHg 50%
    14:00 +28°C° 0 mm 3 mps 726 mmHg 51%
    15:00 +28°C° 0 mm 3 mps 726 mmHg 52%
    16:00 +28°C° 0 mm 4 mps 726 mmHg 54%
    17:00 +27°C° 0 mm 3 mps 726 mmHg 61%
    18:00 +25°C° 0 mm 3 mps 726 mmHg 68%
    19:00 +24°C° 0 mm 3 mps 726 mmHg 75%
    20:00 +21°C° 0 mm 2 mps 726 mmHg 79%
    21:00 +20°C° 0 mm 2 mps 726 mmHg 83%
    22:00 +18°C° 0 mm 2 mps 726 mmHg 88%
    23:00 +17°C° 0 mm 2 mps 726 mmHg 87%

    Day after tomorrow, 29 June, Saturday

    Time Temperature Precipitation Wind Pressure Humidity
    00:00 +16°C° 0 mm 2 mps 725 mmHg 87%
    01:00 +16°C° 0 mm 1 mps 725 mmHg 86%
    02:00 +15°C° 0 mm 1 mps 725 mmHg 87%
    03:00 +15°C° 0 mm 1 mps 725 mmHg 89%
    04:00 +14°C° 0 mm 1 mps 724 mmHg 90%
    05:00 +15°C° 0 mm 1 mps 724 mmHg 86%
    06:00 +18°C° 0 mm 1 mps 724 mmHg 82%
    07:00 +19°C° 0 mm 1 mps 724 mmHg 79%
    08:00 +20°C° 0 mm 2 mps 724 mmHg 73%
    09:00 +23°C° 0 mm 2 mps 725 mmHg 67%
    10:00 +26°C° 0 mm 2 mps 725 mmHg 62%
    11:00 +27°C° 0 mm 3 mps 724 mmHg 60%
    12:00 +28°C° 0 mm 3 mps 724 mmHg 58%
    13:00 +29°C° 0 mm 3 mps 724 mmHg 56%
    14:00 +29°C° 0 mm 3 mps 724 mmHg 56%
    15:00 +30°C° 0 mm 3 mps 724 mmHg 57%
    16:00 +30°C° 0 mm 3 mps 724 mmHg 57%
    17:00 +28°C° 0 mm 3 mps 724 mmHg 64%
    18:00 +27°C° 0 mm 2 mps 724 mmHg 70%
    19:00 +26°C° 0 mm 2 mps 724 mmHg 77%
    20:00 +24°C° 0 mm 2 mps 724 mmHg 81%
    21:00 +22°C° 0 mm 1 mps 724 mmHg 86%
    22:00 +20°C° 0 mm 1 mps 724 mmHg 91%
    23:00 +19°C° 0 mm 1 mps 724 mmHg 91%

    30 June, Sunday

    Time Temperature Precipitation Wind Pressure Humidity
    00:00 +17°C° 0 mm 0 mps 724 mmHg 92%
    01:00 +16°C° 0 mm 0 mps 724 mmHg 92%
    02:00 +16°C° 0 mm 0 mps 724 mmHg 92%
    03:00 +16°C° 0 mm 0 mps 723 mmHg 93%
    04:00 +16°C° 0 mm 0 mps 723 mmHg 93%
    05:00 +18°C° 0 mm 0 mps 724 mmHg 90%
    06:00 +21°C° 0 mm 1 mps 724 mmHg 87%
    07:00 +23°C° 0 mm 1 mps 724 mmHg 84%
    08:00 +25°C° 0 mm 1 mps 724 mmHg 74%
    09:00 +28°C° 0 mm 2 mps 725 mmHg 65%
    10:00 +30°C° 0 mm 2 mps 725 mmHg 55%
    11:00 +31°C° 0 mm 2 mps 725 mmHg 50%
    12:00 +34°C° 0 mm 3 mps 725 mmHg 45%
    13:00 +35°C° 0 mm 3 mps 725 mmHg 39%
    14:00 +36°C° 0 mm 3 mps 725 mmHg 38%
    15:00 +36°C° 0 mm 2 mps 725 mmHg 37%
    16:00 +36°C° 0 mm 2 mps 725 mmHg 36%
    17:00 +33°C° 0 mm 1 mps 725 mmHg 45%
    18:00 +31°C° 0 mm 1 mps 725 mmHg 54%
    19:00 +29°C° 0 mm 1 mps 724 mmHg 62%
    20:00 +25°C° 0 mm 0 mps 724 mmHg 65%
    21:00 +23°C° 0 mm 0 mps 725 mmHg 69%
    22:00 +21°C° 0 mm 0 mps 725 mmHg 72%
    23:00 +21°C° 0 mm 0 mps 724 mmHg 74%

    1 July, Monday

    Time Temperature Precipitation Wind Pressure Humidity
    00:00 +20°C° 0 mm 0 mps 724 mmHg 76%
    01:00 +19°C° 0 mm 0 mps 724 mmHg 77%
    02:00 +19°C° 0 mm 0 mps 724 mmHg 79%
    03:00 +18°C° 0 mm 0 mps 723 mmHg 80%
    04:00 +18°C° 0 mm 0 mps 723 mmHg 81%
    05:00 +19°C° 0.1 mm 0 mps 724 mmHg 81%
    06:00 +20°C° 0.1 mm 0 mps 724 mmHg 80%
    07:00 +22°C° 0.1 mm 0 mps 724 mmHg 79%
    08:00 +25°C° 0.5 mm 1 mps 725 mmHg 79%
    09:00 +26°C° 0.5 mm 1 mps 725 mmHg 79%
    10:00 +27°C° 0.5 mm 2 mps 725 mmHg 79%
    11:00 +28°C° 0 mm 2 mps 725 mmHg 74%
    12:00 +29°C° 0 mm 2 mps 725 mmHg 69%
    13:00 +30°C° 0 mm 2 mps 725 mmHg 63%
    14:00 +30°C° 0.8 mm 3 mps 725 mmHg 66%
    15:00 +29°C° 0.8 mm 3 mps 725 mmHg 70%
    16:00 +29°C° 0.8 mm 3 mps 724 mmHg 73%
    17:00 +28°C° 0.8 mm 3 mps 724 mmHg 75%
    18:00 +27°C° 0.8 mm 2 mps 725 mmHg 78%
    19:00 +26°C° 0.8 mm 1 mps 725 mmHg 80%
    20:00 +24°C° 1.3 mm 1 mps 725 mmHg 85%
    21:00 +22°C° 1.3 mm 1 mps 725 mmHg 90%
    22:00 +20°C° 1.3 mm 1 mps 725 mmHg 94%
    23:00 +20°C° 1.4 mm 1 mps 725 mmHg 94%

    2 July, Tuesday

    Time Temperature Precipitation Wind Pressure Humidity
    00:00 +19°C° 1.4 mm 1 mps 725 mmHg 95%
    01:00 +19°C° 1.4 mm 1 mps 725 mmHg 95%
    02:00 +19°C° 1.1 mm 1 mps 725 mmHg 95%
    03:00 +17°C° 1.1 mm 0 mps 725 mmHg 95%
    04:00 +16°C° 1.1 mm 0 mps 725 mmHg 95%
    05:00 +17°C° 0.1 mm 0 mps 725 mmHg 93%
    06:00 +17°C° 0.1 mm 0 mps 725 mmHg 92%
    07:00 +18°C° 0.1 mm 0 mps 725 mmHg 90%
    08:00 +21°C° 0 mm 1 mps 725 mmHg 83%
    09:00 +22°C° 0 mm 1 mps 725 mmHg 77%
    10:00 +23°C° 0 mm 1 mps 725 mmHg 70%
    11:00 +24°C° 0 mm 1 mps 725 mmHg 67%
    12:00 +25°C° 0 mm 1 mps 725 mmHg 64%
    13:00 +26°C° 0 mm 2 mps 725 mmHg 62%
    14:00 +26°C° 0 mm 2 mps 725 mmHg 62%
    15:00 +26°C° 0 mm 2 mps 725 mmHg 62%
    16:00 +26°C° 0 mm 2 mps 725 mmHg 62%
    17:00 +25°C° 0 mm 2 mps 724 mmHg 67%
    18:00 +24°C° 0 mm 2 mps 724 mmHg 71%
    19:00 +23°C° 0 mm 2 mps 724 mmHg 76%
    20:00 +21°C° 0 mm 2 mps 724 mmHg 78%
    21:00 +19°C° 0 mm 3 mps 724 mmHg 80%
    22:00 +18°C° 0 mm 3 mps 724 mmHg 82%
    23:00 +17°C° 0 mm 3 mps 724 mmHg 82%
    Show more